| time (UTC) | temp F | wind direction | speed MPH | gust MPH | rain 1hr in | rain 24hr in | rain mn in | humidity % | barometer mb |
| 20260902152005 | 86 | 86 | 2.0 | 3.0 | 0.00 | 0.00 | 0.00 | 72 | 1014.2 |
| 20260902151006 | 87 | 80 | 2.0 | 3.0 | 0.00 | 0.00 | 0.00 | 73 | 1014.2 |
| 20260902150004 | 87 | 98 | 2.0 | 3.0 | 0.00 | 0.00 | 0.00 | 75 | 1014.2 |
| 20260902145006 | 88 | 95 | 2.0 | 3.0 | 0.00 | 0.00 | 0.00 | 73 | 1014.3 |
| 20260902142005 | 86 | 72 | 0.0 | 3.0 | 0.00 | 0.00 | 0.00 | 76 | 1014.3 |
| 20260902140005 | 85 | 88 | 1.0 | 3.0 | 0.00 | 0.00 | 0.00 | 80 | 1014.3 |
| 20260902135005 | 84 | 299 | 2.0 | 5.0 | 0.00 | 0.00 | 0.00 | 80 | 1014.1 |
| 20260902134005 | 83 | 253 | 2.0 | 3.0 | 0.00 | 0.00 | 0.00 | 80 | 1014.0 |
| 20260902133006 | 84 | 35 | 0.0 | 2.0 | 0.00 | 0.00 | 0.00 | 82 | 1014.2 |
| 20260902132006 | 82 | 13 | 0.0 | 2.0 | 0.00 | 0.00 | 0.00 | 81 | 1014.2 |
| 20260902131006 | 80 | 289 | 2.0 | 3.0 | 0.00 | 0.00 | 0.00 | 80 | 1014.2 |
| 20260902130006 | 80 | 294 | 2.0 | 3.0 | 0.00 | 0.00 | 0.00 | 77 | 1014.1 |
| 20260902125006 | 79 | 275 | 1.0 | 3.0 | 0.00 | 0.00 | 0.00 | 73 | 1014.2 |
| 20260902124006 | 78 | 306 | 1.0 | 3.0 | 0.00 | 0.00 | 0.00 | 66 | 1014.1 |
| 20260902123005 | 78 | 293 | 2.0 | 3.0 | 0.00 | 0.00 | 0.00 | 65 | 1014.1 |
| 20260902121005 | 76 | 303 | 1.0 | 2.0 | 0.00 | 0.00 | 0.00 | 66 | 1014.0 |
| 20260902120006 | 76 | 324 | 0.0 | 1.0 | 0.00 | 0.00 | 0.00 | 66 | 1013.9 |
| 20260902115007 | 75 | 324 | 0.0 | 1.0 | 0.00 | 0.00 | 0.00 | 67 | 1013.7 |
| 20260902114006 | 75 | 324 | 0.0 | 0.0 | 0.00 | 0.00 | 0.00 | 67 | 1013.7 |
| 20260902112006 | 75 | 323 | 0.0 | 1.0 | 0.00 | 0.00 | 0.00 | 67 | 1013.4 |
| 20260902111005 | 75 | 327 | 0.0 | 0.0 | 0.00 | 0.00 | 0.00 | 68 | 1013.5 |
| 20260902110007 | 75 | 327 | 0.0 | 0.0 | 0.00 | 0.00 | 0.00 | 68 | 1013.3 |
| 20260902105007 | 75 | 327 | 0.0 | 0.0 | 0.00 | 0.00 | 0.00 | 68 | 1013.2 |
| 20260902104005 | 75 | 327 | 0.0 | 0.0 | 0.00 | 0.00 | 0.00 | 68 | 1013.2 |
| 20260902102006 | 75 | 327 | 0.0 | 0.0 | 0.00 | 0.00 | 0.00 | 68 | 1013.0 |
| 20260902101005 | 75 | 327 | 0.0 | 1.0 | 0.00 | 0.00 | 0.00 | 68 | 1012.8 |
| 20260902100004 | 75 | 327 | 0.0 | 0.0 | 0.00 | 0.00 | 0.00 | 68 | 1012.9 |
| 20260902095005 | 75 | 327 | 0.0 | 1.0 | 0.00 | 0.00 | 0.00 | 68 | 1013.2 |
| 20260902094007 | 76 | 327 | 0.0 | 1.0 | 0.00 | 0.00 | 0.00 | 67 | 1013.0 |
| 20260902093005 | 76 | 327 | 0.0 | 0.0 | 0.00 | 0.00 | 0.00 | 68 | 1012.8 |
| 20260902092006 | 76 | 327 | 0.0 | 2.0 | 0.00 | 0.00 | 0.00 | 68 | 1013.0 |
| 20260902091005 | 76 | 327 | 1.0 | 2.0 | 0.00 | 0.00 | 0.00 | 68 | 1013.0 |
| 20260902090005 | 76 | 327 | 1.0 | 2.0 | 0.00 | 0.00 | 0.00 | 67 | 1012.9 |
| 20260902085005 | 76 | 307 | 0.0 | 2.0 | 0.00 | 0.00 | 0.00 | 68 | 1012.7 |
| 20260902084005 | 76 | 307 | 1.0 | 2.0 | 0.00 | 0.00 | 0.00 | 68 | 1012.7 |
| 20260902083006 | 76 | 313 | 1.0 | 2.0 | 0.00 | 0.00 | 0.00 | 68 | 1012.6 |
| 20260902082005 | 76 | 313 | 1.0 | 3.0 | 0.00 | 0.00 | 0.00 | 68 | 1012.6 |
| 20260902081005 | 76 | 330 | 1.0 | 3.0 | 0.00 | 0.00 | 0.00 | 67 | 1012.6 |
| 20260902080005 | 76 | 313 | 0.0 | 1.0 | 0.00 | 0.00 | 0.00 | 67 | 1012.7 |
| 20260902074005 | 76 | 313 | 0.0 | 1.0 | 0.00 | 0.00 | 0.00 | 67 | 1012.6 |
| 20260902073005 | 76 | 313 | 0.0 | 3.0 | 0.00 | 0.00 | 0.00 | 67 | 1012.8 |
| 20260902072006 | 76 | 314 | 0.0 | 2.0 | 0.00 | 0.00 | 0.00 | 67 | 1012.7 |
| 20260902070007 | 76 | 314 | 1.0 | 2.0 | 0.00 | 0.00 | 0.00 | 67 | 1012.8 |
| 20260902065006 | 76 | 200 | 0.0 | 0.0 | 0.00 | 0.00 | 0.00 | 67 | 1013.0 |
| 20260902064006 | 76 | 200 | 0.0 | 1.0 | 0.00 | 0.00 | 0.00 | 67 | 1012.9 |
| 20260902063006 | 76 | 200 | 0.0 | 1.0 | 0.00 | 0.00 | 0.00 | 67 | 1012.9 |
| 20260902061005 | 76 | 200 | 0.0 | 1.0 | 0.00 | 0.00 | 0.00 | 67 | 1013.2 |
| 20260902060005 | 76 | 200 | 0.0 | 1.0 | 0.00 | 0.00 | 0.00 | 68 | 1013.3 |
| 20260902055005 | 76 | 200 | 0.0 | 1.0 | 0.00 | 0.00 | 0.00 | 68 | 1013.3 |
| 20260902054005 | 75 | 200 | 0.0 | 0.0 | 0.00 | 0.00 | 0.00 | 70 | 1013.3 |
| 20260902053005 | 75 | 200 | 0.0 | 2.0 | 0.00 | 0.00 | 0.00 | 71 | 1013.4 |
| 20260902052006 | 76 | 159 | 1.0 | 2.0 | 0.00 | 0.00 | 0.00 | 71 | 1013.4 |
| 20260902051006 | 76 | 142 | 0.0 | 1.0 | 0.00 | 0.00 | 0.00 | 71 | 1013.4 |
| 20260902050007 | 76 | 142 | 0.0 | 1.0 | 0.00 | 0.00 | 0.00 | 71 | 1013.4 |
| 20260902045005 | 76 | 142 | 0.0 | 1.0 | 0.00 | 0.00 | 0.00 | 71 | 1013.3 |
| 20260902044006 | 76 | 142 | 0.0 | 1.0 | 0.00 | 0.00 | 0.00 | 71 | 1013.3 |
| 20260902040005 | 76 | 142 | 0.0 | 1.0 | 0.00 | 0.00 | 0.00 | 72 | 1013.4 |
| 20260902035005 | 76 | 142 | 0.0 | 1.0 | 0.00 | 0.00 | 0.00 | 74 | 1013.5 |
| 20260902034006 | 77 | 142 | 0.0 | 0.0 | 0.00 | 0.00 | 0.00 | 74 | 1013.6 |
| 20260902032005 | 77 | 142 | 0.0 | 1.0 | 0.00 | 0.00 | 0.00 | 74 | 1014.0 |
| 20260902031005 | 77 | 142 | 0.0 | 0.0 | 0.00 | 0.00 | 0.00 | 76 | 1014.0 |
| 20260902030005 | 77 | 142 | 0.0 | 1.0 | 0.00 | 0.00 | 0.00 | 75 | 1014.1 |
| 20260902025006 | 77 | 142 | 1.0 | 2.0 | 0.00 | 0.00 | 0.00 | 74 | 1014.1 |
| 20260902024005 | 77 | 142 | 0.0 | 0.0 | 0.00 | 0.00 | 0.00 | 76 | 1014.1 |
| 20260902023007 | 77 | 142 | 0.0 | 1.0 | 0.00 | 0.00 | 0.00 | 77 | 1014.1 |
| 20260902022006 | 77 | 142 | 0.0 | 1.0 | 0.00 | 0.00 | 0.00 | 77 | 1014.2 |
| 20260902021005 | 77 | 103 | 0.0 | 1.0 | 0.00 | 0.00 | 0.00 | 79 | 1014.0 |
| 20260902015005 | 78 | 103 | 0.0 | 1.0 | 0.00 | 0.00 | 0.00 | 80 | 1014.0 |
| 20260902012005 | 78 | 103 | 0.0 | 0.0 | 0.00 | 0.00 | 0.00 | 83 | 1013.8 |
| 20260902011006 | 79 | 103 | 0.0 | 1.0 | 0.00 | 0.00 | 0.00 | 83 | 1013.6 |
| 20260902010005 | 79 | 86 | 0.0 | 1.0 | 0.00 | 0.00 | 0.00 | 83 | 1013.6 |
| 20260902005006 | 80 | 86 | 1.0 | 3.0 | 0.00 | 0.00 | 0.00 | 83 | 1013.6 |
| 20260902004005 | 80 | 105 | 2.0 | 5.0 | 0.00 | 0.00 | 0.00 | 83 | 1013.5 |
| 20260902003007 | 81 | 68 | 1.0 | 3.0 | 0.00 | 0.00 | 0.00 | 83 | 1013.6 |
| 20260902002005 | 81 | 21 | 0.0 | 3.0 | 0.00 | 0.00 | 0.00 | 83 | 1013.7 |
| 20260902001005 | 81 | 23 | 0.0 | 2.0 | 0.00 | 0.00 | 0.00 | 83 | 1013.6 |
| 20260901235006 | 82 | 23 | 0.0 | 1.0 | 0.00 | 0.00 | 0.00 | 83 | 1013.9 |
| 20260901233005 | 82 | 23 | 0.0 | 1.0 | 0.00 | 0.00 | 0.00 | 82 | 1013.6 |
| 20260901232005 | 82 | 23 | 0.0 | 2.0 | 0.00 | 0.00 | 0.00 | 82 | 1013.6 |
| 20260901231006 | 82 | 51 | 0.0 | 3.0 | 0.00 | 0.00 | 0.00 | 81 | 1013.5 |
| 20260901230006 | 83 | 40 | 1.0 | 2.0 | 0.00 | 0.00 | 0.00 | 81 | 1013.4 |
| 20260901225005 | 83 | 32 | 1.0 | 3.0 | 0.00 | 0.00 | 0.00 | 81 | 1013.4 |
| 20260901224007 | 83 | 354 | 1.0 | 3.0 | 0.00 | 0.00 | 0.00 | 81 | 1013.4 |
| 20260901223006 | 83 | 17 | 2.0 | 3.0 | 0.00 | 0.00 | 0.00 | 81 | 1013.5 |
| 20260901222005 | 83 | 41 | 1.0 | 3.0 | 0.00 | 0.00 | 0.00 | 81 | 1013.3 |
| 20260901221007 | 83 | 52 | 2.0 | 6.0 | 0.00 | 0.00 | 0.00 | 81 | 1013.2 |
| 20260901220005 | 84 | 1 | 1.0 | 3.0 | 0.00 | 0.00 | 0.00 | 81 | 1013.1 |
| 20260901215005 | 84 | 71 | 3.0 | 6.0 | 0.00 | 0.00 | 0.00 | 80 | 1012.7 |
| 20260901214007 | 84 | 22 | 2.0 | 9.0 | 0.00 | 0.00 | 0.00 | 80 | 1012.7 |
| 20260901213005 | 85 | 46 | 2.0 | 7.0 | 0.00 | 0.00 | 0.00 | 79 | 1012.6 |
| 20260901212006 | 85 | 56 | 4.0 | 9.0 | 0.00 | 0.00 | 0.00 | 77 | 1012.7 |
| 20260901211005 | 85 | 51 | 4.0 | 12.0 | 0.00 | 0.00 | 0.00 | 76 | 1012.6 |
| 20260901210005 | 87 | 47 | 2.0 | 8.0 | 0.00 | 0.00 | 0.00 | 73 | 1012.9 |
| 20260901205006 | 87 | 43 | 3.0 | 9.0 | 0.00 | 0.00 | 0.00 | 72 | 1012.8 |
| 20260901204007 | 87 | 44 | 4.0 | 9.0 | 0.00 | 0.00 | 0.00 | 70 | 1013.1 |
| 20260901202007 | 88 | 27 | 4.0 | 9.0 | 0.00 | 0.01 | 0.00 | 71 | 1013.1 |
| 20260901200006 | 89 | 47 | 6.0 | 12.0 | 0.00 | 0.01 | 0.00 | 69 | 1013.0 |
| 20260901195005 | 89 | 71 | 5.0 | 10.0 | 0.00 | 0.01 | 0.00 | 69 | 1013.2 |
| 20260901194006 | 89 | 90 | 3.0 | 10.0 | 0.00 | 0.01 | 0.00 | 69 | 1013.3 |
| 20260901193006 | 88 | 6 | 6.0 | 12.0 | 0.00 | 0.01 | 0.00 | 71 | 1013.4 |
| 20260901192005 | 89 | 27 | 3.0 | 10.0 | 0.00 | 0.01 | 0.00 | 67 | 1013.2 |
| 20260901191007 | 89 | 47 | 2.0 | 10.0 | 0.00 | 0.01 | 0.00 | 70 | 1013.3 |
| 20260901190005 | 88 | 33 | 3.0 | 10.0 | 0.00 | 0.01 | 0.00 | 70 | 1013.4 |
| 20260901185006 | 89 | 80 | 5.0 | 10.0 | 0.00 | 0.01 | 0.00 | 70 | 1013.5 |
| 20260901183006 | 88 | 72 | 5.0 | 12.0 | 0.00 | 0.01 | 0.00 | 70 | 1013.7 |
| 20260901181005 | 89 | 36 | 5.0 | 10.0 | 0.00 | 0.01 | 0.00 | 68 | 1013.9 |
| 20260901180004 | 89 | 75 | 3.0 | 12.0 | 0.00 | 0.01 | 0.00 | 69 | 1013.9 |
| 20260901175006 | 89 | 77 | 5.0 | 12.0 | 0.00 | 0.01 | 0.00 | 69 | 1014.2 |
| 20260901174008 | 89 | 31 | 4.0 | 10.0 | 0.00 | 0.01 | 0.00 | 70 | 1014.5 |
| 20260901173005 | 89 | 20 | 3.0 | 12.0 | 0.00 | 0.01 | 0.00 | 70 | 1014.6 |
| 20260901172006 | 90 | 16 | 4.0 | 10.0 | 0.00 | 0.01 | 0.00 | 68 | 1014.7 |
| 20260901171005 | 90 | 38 | 3.0 | 9.0 | 0.00 | 0.01 | 0.00 | 68 | 1014.6 |
| 20260901170005 | 90 | 62 | 3.0 | 9.0 | 0.00 | 0.01 | 0.00 | 67 | 1014.7 |
| 20260901165006 | 90 | 20 | 4.0 | 10.0 | 0.00 | 0.01 | 0.00 | 67 | 1014.7 |
| 20260901164005 | 91 | 31 | 3.0 | 6.0 | 0.00 | 0.01 | 0.00 | 66 | 1014.7 |
| 20260901163005 | 90 | 34 | 3.0 | 10.0 | 0.00 | 0.01 | 0.00 | 68 | 1014.6 |
| 20260901162005 | 90 | 21 | 2.0 | 10.0 | 0.00 | 0.01 | 0.00 | 69 | 1014.8 |
| 20260901161006 | 89 | 32 | 3.0 | 7.0 | 0.00 | 0.02 | 0.00 | 68 | 1015.0 |
| 20260901155006 | 88 | 44 | 2.0 | 7.0 | 0.00 | 0.06 | 0.00 | 72 | 1015.2 |
| 20260901154005 | 88 | 12 | 2.0 | 5.0 | 0.00 | 0.10 | 0.00 | 72 | 1015.2 |